THORAD DELTA 1 DEB, 8563

Orbit data source: Space-Track

THORAD DELTA 1 DEB, 8563 is space debris in SSO originally from a launch on Fri, 15 Nov 1974 UTC launched from the Air Force Western Test Range (AFWTR). Debris objects in space refer to the collection of defunct objects orbiting the Earth. Examples of debris include non-operational satellites, rocket bodies, and fragments generated from explosions, collisions, or faulty payload assembly.

Loading next visibility...
Identifier
8563, 1974-089DA
Orbit
SSO
Country
Flag of USUS
Related business
Manufacturer
Unknown
Mission
Spacecraft
Bus & Motor
Unknown
Mass
Unknown
Launch date (UTC)
1974-11-15 (52 years ago)
Launch vehicle
Unknown
Launch site
Air Force Western Test Range (AFWTR)
Object type
Payload
Rocket body
Debris
Shape & HBR
Unknown shape, 0.1 m
Radar Cross Section
Medium (>0.1 m² and <1 m²)

Expand to show TLE details & history
Last TLE update: 1 day ago

TLE from 1 day ago
0 THORAD DELTA 1 DEB
1 08563U 74089DA  26206.72203378 -.00000002  00000-0  25329-3 0  9995
2 08563 101.4094 299.9422 0082397 116.2436  38.9709 12.53639719360924
Epoch: 2026-07-25T17:19Z
TLE epoch observation values (Epoch: 2026-07-25T17:19:43.718Z)
Latitude
23.70228°
Longitude
-78.36258°
Altitude
1,401.952 km
Speed
7.184 km/s
True Right ascension
08h 19m 59s
True Declination
23° 35' 11"
Sunlit
Object was in daylight at epoch
Visualization orbit readout
Latitude
Unknown
Longitude
Unknown
Altitude
Unknown
Speed
Unknown
Apparent Right ascension
Unknown
Apparent Declination
Unknown
Sunlit
N/A
Visualization observer readout
Local Sidereal Time
08:15:01
Azimuth
Unknown
Elevation
Unknown
Doppler factor
Unknown
Orbital elements
Apogee altitude
1,511.305 km
Perigee altitude
1,382.355 km
Semi-major axis
7,824.967 km
Eccentricity
0.00824
Inclination
101.4094°
RAAN
299.9422°
Arg. of periapsis
116.2436°
True anomaly
39.56951°
Mean anomaly
38.9709°
Eccentric anomaly
39.26973°
Mean motion
3.13559 °/min
Orbital period
114.81 mins
BSTAR
0.00025329
Loading maneuver chart data...
Computing Atmospheric mass density...

Documentation

Showing up to 5 results
|